| time (UTC) | temp F | wind direction | speed knots | gust knots | rain 1hr in | rain 24hr in | rain mn in | humidity % | barometer mb |
| 20260903031545 | 76 | 240 | 1.7 | 2.6 | 0.00 | 0.00 | 0.00 | 44 | 1004.4 |
| 20260903030046 | 77 | 202 | 1.7 | 3.5 | 0.00 | 0.00 | 0.00 | 43 | 1004.2 |
| 20260903024546 | 80 | 245 | 1.7 | 2.6 | 0.00 | 0.00 | 0.00 | 38 | 1004.2 |
| 20260903023044 | 81 | 240 | 2.6 | 3.5 | 0.00 | 0.00 | 0.00 | 36 | 1004.0 |
| 20260903021555 | 82 | 245 | 1.7 | 2.6 | 0.00 | 0.00 | 0.00 | 34 | 1003.7 |
| 20260903020043 | 82 | 245 | 0.9 | 1.7 | 0.00 | 0.00 | 0.00 | 33 | 1003.7 |
| 20260903014547 | 83 | 217 | 0.0 | 0.0 | 0.00 | 0.00 | 0.00 | 31 | 1003.5 |
| 20260903013042 | 83 | 214 | 0.0 | 0.0 | 0.00 | 0.00 | 0.00 | 31 | 1003.3 |
| 20260903011544 | 84 | 200 | 0.0 | 1.7 | 0.00 | 0.00 | 0.00 | 32 | 1003.3 |
| 20260903010048 | 87 | 195 | 2.6 | 4.3 | 0.00 | 0.00 | 0.00 | 30 | 1003.1 |
| 20260903004552 | 91 | 183 | 4.3 | 6.1 | 0.00 | 0.00 | 0.00 | 26 | 1003.0 |
| 20260903003040 | 94 | 184 | 5.2 | 9.6 | 0.00 | 0.00 | 0.00 | 23 | 1003.2 |
| 20260903001539 | 96 | 201 | 8.7 | 13.0 | 0.00 | 0.00 | 0.00 | 21 | 1003.0 |
| 20260903000039 | 97 | 198 | 7.8 | 13.0 | 0.00 | 0.00 | 0.00 | 22 | 1003.0 |
| 20260902234537 | 98 | 181 | 9.6 | 14.8 | 0.00 | 0.00 | 0.00 | 22 | 1003.1 |
| 20260902233038 | 98 | 210 | 7.8 | 13.0 | 0.00 | 0.00 | 0.00 | 22 | 1003.2 |
| 20260902231545 | 98 | 169 | 6.1 | 10.4 | 0.00 | 0.00 | 0.00 | 24 | 1003.3 |
| 20260902230032 | 97 | 145 | 4.3 | 8.7 | 0.00 | 0.00 | 0.00 | 32 | 1003.3 |
| 20260902224530 | 96 | 152 | 7.0 | 10.4 | 0.00 | 0.00 | 0.00 | 32 | 1003.3 |
| 20260902223028 | 97 | 136 | 4.3 | 9.6 | 0.00 | 0.00 | 0.00 | 34 | 1003.5 |
| 20260902221526 | 96 | 162 | 6.1 | 10.4 | 0.00 | 0.00 | 0.00 | 33 | 1003.7 |
| 20260902220029 | 96 | 139 | 8.7 | 13.0 | 0.00 | 0.00 | 0.00 | 35 | 1003.9 |
| 20260902214523 | 96 | 131 | 7.8 | 13.9 | 0.00 | 0.00 | 0.00 | 36 | 1004.1 |
| 20260902213020 | 95 | 139 | 9.6 | 13.9 | 0.00 | 0.00 | 0.00 | 36 | 1004.3 |
| 20260902211518 | 95 | 107 | 6.1 | 12.2 | 0.00 | 0.00 | 0.00 | 34 | 1004.5 |
| 20260902210016 | 95 | 179 | 6.1 | 13.9 | 0.00 | 0.00 | 0.00 | 35 | 1004.7 |
| 20260902204529 | 95 | 159 | 6.1 | 10.4 | 0.00 | 0.00 | 0.00 | 37 | 1004.8 |
| 20260902203011 | 95 | 169 | 6.1 | 11.3 | 0.00 | 0.00 | 0.00 | 36 | 1005.1 |
| 20260902201519 | 94 | 117 | 7.0 | 12.2 | 0.00 | 0.00 | 0.00 | 38 | 1005.1 |
| 20260902200008 | 94 | 139 | 5.2 | 10.4 | 0.00 | 0.00 | 0.00 | 36 | 1005.3 |
| 20260902194508 | 93 | 136 | 4.3 | 11.3 | 0.00 | 0.00 | 0.00 | 38 | 1005.7 |
| 20260902193002 | 93 | 106 | 5.2 | 11.3 | 0.00 | 0.00 | 0.00 | 39 | 1005.7 |
| 20260902191503 | 93 | 94 | 6.1 | 9.6 | 0.00 | 0.00 | 0.00 | 39 | 1005.8 |
| 20260902190058 | 92 | 73 | 3.5 | 7.8 | 0.00 | 0.00 | 0.00 | 40 | 1006.1 |
| 20260902184555 | 91 | 151 | 1.7 | 7.8 | 0.00 | 0.00 | 0.00 | 38 | 1006.3 |
| 20260902183056 | 91 | 104 | 3.5 | 7.8 | 0.00 | 0.00 | 0.00 | 39 | 1006.6 |
| 20260902181559 | 91 | 108 | 3.5 | 7.0 | 0.00 | 0.00 | 0.00 | 39 | 1006.9 |
| 20260902180057 | 90 | 123 | 1.7 | 6.1 | 0.00 | 0.00 | 0.00 | 41 | 1007.0 |
| 20260902174545 | 90 | 244 | 3.5 | 8.7 | 0.00 | 0.00 | 0.00 | 39 | 1007.1 |
| 20260902173043 | 89 | 174 | 3.5 | 7.8 | 0.00 | 0.00 | 0.00 | 42 | 1007.3 |
| 20260902171542 | 88 | 189 | 4.3 | 6.1 | 0.00 | 0.00 | 0.00 | 43 | 1007.4 |
| 20260902170038 | 87 | 156 | 1.7 | 4.3 | 0.00 | 0.00 | 0.00 | 44 | 1007.6 |
| 20260902164547 | 87 | 256 | 2.6 | 7.0 | 0.00 | 0.00 | 0.00 | 44 | 1007.7 |
| 20260902163033 | 85 | 127 | 0.9 | 7.0 | 0.00 | 0.00 | 0.00 | 48 | 1007.7 |
| 20260902161531 | 84 | 166 | 1.7 | 7.0 | 0.00 | 0.00 | 0.00 | 51 | 1007.6 |
| 20260902160029 | 84 | 128 | 2.6 | 6.1 | 0.00 | 0.00 | 0.00 | 49 | 1007.6 |
| 20260902154532 | 82 | 159 | 2.6 | 5.2 | 0.00 | 0.00 | 0.00 | 51 | 1007.7 |
| 20260902153023 | 81 | 154 | 0.9 | 2.6 | 0.00 | 0.00 | 0.00 | 54 | 1007.9 |
| 20260902151518 | 80 | 124 | 0.0 | 1.7 | 0.00 | 0.00 | 0.00 | 61 | 1008.0 |
| 20260902150014 | 76 | 237 | 0.0 | 0.0 | 0.00 | 0.00 | 0.00 | 65 | 1008.1 |
| 20260902144511 | 74 | 249 | 0.0 | 1.7 | 0.00 | 0.00 | 0.00 | 68 | 1008.2 |
| 20260902143007 | 73 | 226 | 0.9 | 2.6 | 0.00 | 0.00 | 0.00 | 70 | 1008.2 |
| 20260902141515 | 70 | 226 | 0.9 | 3.5 | 0.00 | 0.00 | 0.00 | 74 | 1008.4 |
| 20260902140006 | 69 | 200 | 2.6 | 3.5 | 0.00 | 0.00 | 0.00 | 76 | 1008.4 |
| 20260902134506 | 68 | 215 | 1.7 | 2.6 | 0.00 | 0.00 | 0.00 | 77 | 1008.4 |
| 20260902133005 | 68 | 222 | 1.7 | 2.6 | 0.00 | 0.00 | 0.00 | 76 | 1008.4 |
| 20260902131504 | 66 | 218 | 0.9 | 2.6 | 0.00 | 0.00 | 0.00 | 78 | 1008.4 |
| 20260902130003 | 65 | 240 | 0.9 | 2.6 | 0.00 | 0.00 | 0.00 | 79 | 1008.4 |
| 20260902124509 | 65 | 256 | 1.7 | 4.3 | 0.00 | 0.00 | 0.00 | 79 | 1008.3 |
| 20260902123002 | 64 | 259 | 0.9 | 2.6 | 0.00 | 0.00 | 0.00 | 79 | 1008.3 |
| 20260902121501 | 64 | 184 | 1.7 | 3.5 | 0.00 | 0.00 | 0.00 | 79 | 1008.3 |
| 20260902120101 | 66 | 206 | 0.9 | 1.7 | 0.00 | 0.00 | 0.00 | 76 | 1008.1 |
| 20260902114600 | 66 | 287 | 0.9 | 3.5 | 0.00 | 0.00 | 0.00 | 76 | 1008.0 |
| 20260902113059 | 65 | 275 | 0.9 | 2.6 | 0.00 | 0.00 | 0.00 | 77 | 1008.1 |
| 20260902111600 | 66 | 262 | 0.9 | 3.5 | 0.00 | 0.00 | 0.00 | 76 | 1007.9 |
| 20260902104559 | 65 | 221 | 1.7 | 5.2 | 0.00 | 0.00 | 0.00 | 78 | 1008.0 |
| 20260902103101 | 64 | 211 | 2.6 | 3.5 | 0.00 | 0.00 | 0.00 | 81 | 1008.1 |
| 20260902101559 | 64 | 210 | 1.7 | 2.6 | 0.00 | 0.00 | 0.00 | 80 | 1007.9 |
| 20260902100054 | 64 | 231 | 1.7 | 2.6 | 0.00 | 0.00 | 0.00 | 80 | 1007.8 |
| 20260902094552 | 65 | 221 | 1.7 | 2.6 | 0.00 | 0.00 | 0.00 | 78 | 1007.9 |
| 20260902093118 | 65 | 222 | 0.9 | 2.6 | 0.00 | 0.00 | 0.00 | 79 | 1008.0 |
| 20260902091554 | 65 | 201 | 1.7 | 3.5 | 0.00 | 0.00 | 0.00 | 79 | 1008.0 |
| 20260902090056 | 65 | 220 | 1.7 | 3.5 | 0.00 | 0.00 | 0.00 | 78 | 1008.0 |
| 20260902084555 | 65 | 214 | 2.6 | 3.5 | 0.00 | 0.00 | 0.00 | 78 | 1008.0 |
| 20260902083051 | 65 | 201 | 2.6 | 4.3 | 0.00 | 0.00 | 0.00 | 77 | 1007.8 |
| 20260902081600 | 65 | 197 | 1.7 | 2.6 | 0.00 | 0.00 | 0.00 | 77 | 1007.5 |
| 20260902080043 | 66 | 220 | 1.7 | 2.6 | 0.00 | 0.00 | 0.00 | 76 | 1007.6 |
| 20260902074538 | 67 | 217 | 1.7 | 3.5 | 0.00 | 0.00 | 0.00 | 74 | 1007.5 |
| 20260902073036 | 67 | 174 | 2.6 | 3.5 | 0.00 | 0.00 | 0.00 | 74 | 1007.5 |
| 20260902071536 | 68 | 207 | 1.7 | 3.5 | 0.00 | 0.00 | 0.00 | 71 | 1007.3 |
| 20260902070030 | 70 | 188 | 0.9 | 3.5 | 0.00 | 0.00 | 0.00 | 67 | 1007.5 |
| 20260902064529 | 70 | 257 | 0.9 | 3.5 | 0.00 | 0.00 | 0.00 | 67 | 1007.2 |
| 20260902063031 | 69 | 278 | 0.0 | 3.5 | 0.00 | 0.00 | 0.00 | 69 | 1007.4 |
| 20260902061540 | 70 | 265 | 0.9 | 2.6 | 0.00 | 0.00 | 0.00 | 69 | 1007.2 |
| 20260902060024 | 68 | 216 | 0.9 | 1.7 | 0.00 | 0.00 | 0.00 | 72 | 1007.4 |
| 20260902054520 | 70 | 225 | 2.6 | 3.5 | 0.00 | 0.00 | 0.00 | 69 | 1007.4 |
| 20260902053020 | 72 | 247 | 1.7 | 2.6 | 0.00 | 0.00 | 0.00 | 63 | 1007.2 |
| 20260902051517 | 72 | 234 | 1.7 | 3.5 | 0.00 | 0.00 | 0.00 | 66 | 1007.2 |
| 20260902050013 | 72 | 195 | 1.7 | 2.6 | 0.00 | 0.00 | 0.00 | 63 | 1007.1 |
| 20260902044512 | 74 | 220 | 1.7 | 2.6 | 0.00 | 0.00 | 0.00 | 60 | 1007.1 |
| 20260902043011 | 76 | 217 | 0.9 | 2.6 | 0.00 | 0.00 | 0.00 | 57 | 1007.2 |
| 20260902041513 | 77 | 229 | 2.6 | 4.3 | 0.00 | 0.00 | 0.00 | 55 | 1007.4 |
| 20260902040013 | 76 | 216 | 2.6 | 5.2 | 0.00 | 0.00 | 0.00 | 57 | 1007.5 |
| 20260902034511 | 76 | 202 | 2.6 | 3.5 | 0.00 | 0.00 | 0.00 | 57 | 1007.6 |
| 20260902033011 | 77 | 207 | 2.6 | 6.1 | 0.00 | 0.00 | 0.00 | 56 | 1007.3 |